ABS-4 (MOBISAT-1)

Last updated on Sun Sep 20 2026 00:02:55 GMT+0000 (Coordinated Universal Time)

1 28184U 04007A 26262.07771608 .00000035 00000+0 00000+0 0 9994 2 28184 6.2727 70.8206 0005295 114.8518 261.3575 1.00275657 53281
UTC large
Height (km)
Speed (km/s)
/
Latitude / Longitude
Inclination (degrees)
Orbital Period (minutes)
Azimuth
Elevation
Range (km)
Doppler Factor

Next 0 passes for location: London (51.5072 / 0.1276)

No passes found over London.
ABS-4 (MOBISAT-1)